Location: New York
(40.7127°N, 74.0060°W)
Time: 17:04:19
(UTC-05:00)

BlueWalker 3 - Visible Passes

Search period start: 29 November 2023 00:00
Search period end: 09 December 2023 00:00
Orbit: 489 x 504 km, 53.2° (Epoch: 29 November)

Date Brightness Start Highest point End Pass type
(mag) Time Alt. Az. Time Alt. Az. Time Alt. Az.
29 Nov 4.2 04:50:59 15° NNE 04:50:59 15° NNE 04:53:09 10° NE visible
29 Nov 2.8 06:26:20 10° NW 06:30:01 43° NNE 06:33:40 10° ESE visible
30 Nov 4.6 04:29:24 14° NNE 04:29:24 14° NNE 04:30:33 10° NE visible
30 Nov 2.8 06:03:57 11° NW 06:07:26 43° NNE 06:11:05 10° ESE visible
01 Dec 5.1 04:07:49 10° NE 04:07:49 10° NE 04:07:56 10° NE visible
01 Dec 2.8 05:42:23 19° NNW 05:44:50 42° NNE 05:48:29 10° ESE visible
02 Dec 2.8 05:20:50 29° NNW 05:22:13 42° NNE 05:25:51 10° ESE visible
03 Dec 2.7 04:59:19 41° NNE 04:59:35 42° NNE 05:03:13 10° ESE visible
04 Dec 3.4 04:37:52 34° ENE 04:37:52 34° ENE 04:40:33 10° ESE visible
04 Dec 3.2 06:12:26 13° WNW 06:15:09 27° SW 06:18:23 10° S visible
05 Dec 4.5 04:16:27 20° E 04:16:27 20° E 04:17:52 10° ESE visible
05 Dec 3.1 05:51:02 21° W 05:52:29 27° SW 05:55:44 10° S visible
06 Dec 5.3 03:55:06 10° ESE 03:55:06 10° ESE 03:55:11 10° ESE visible
06 Dec 3.0 05:29:41 28° SW 05:29:48 28° SW 05:33:04 10° S visible
07 Dec 3.6 05:08:23 23° SSW 05:08:23 23° SSW 05:10:23 10° S visible
08 Dec 4.5 04:47:09 13° S 04:47:09 13° S 04:47:41 10° SSE visible
